Theta_e
301 302 302 303 304 304 305 305 306 306 306 306 306 306 306 305 304 305 305 308 309 309 310 310 314 314 315 316 315 314 315 316 318 319 320 320 323 325 326 327 327 327 328 328 327 326 325 323 322 321 322 312
298 300 300 301 301 302 302 303 304 304 304 304 304 303 302 302 301 302 303 304 306 307 307 307 309 312 313 314 314 312 312 313 314 315 316 318 318 319 320 323 325 326 327 326 327 325 324 323 322 321 320 312
291 297 298 299 300 300 300 301 301 302 302 302 301 301 300 299 299 299 300 301 302 304 304 304 304 308 310 311 312 310 311 312 312 312 313 315 316 316 316 318 320 323 325 326 327 325 324 322 321 321 318 310
288 293 296 296 297 298 298 299 299 299 300 300 299 299 299 297 296 297 296 299 297 301 301 301 301 306 308 308 309 308 308 309 311 310 310 311 313 313 312 313 314 316 322 325 325 324 323 321 320 316 310 309
288 290 293 292 294 295 296 297 297 297 297 297 297 297 297 295 292 292 293 294 294 297 295 298 299 302 305 306 306 305 305 306 309 309 309 307 308 309 309 310 309 310 315 319 324 323 322 320 316 311 309 307
288 288 289 286 287 288 291 293 293 290 291 294 291 296 292 291 292 291 290 292 297 294 295 295 298 299 301 303 304 304 303 303 305 306 308 307 305 305 305 306 304 305 308 312 315 322 320 316 310 307 307 307
287 286 285 285 286 287 291 290 289 286 288 288 289 291 290 292 291 291 290 292 294 294 296 294 296 297 299 300 301 301 300 300 302 302 304 304 304 302 302 300 302 304 304 306 310 317 317 311 308 306 305 305
285 285 285 285 285 285 285 286 286 285 286 286 288 289 291 290 291 290 289 294 294 294 291 291 294 296 296 297 298 299 296 298 300 300 300 300 300 298 297 297 299 302 302 304 306 308 311 308 307 305 303 303
285 285 284 284 285 285 284 285 284 284 285 285 287 288 290 290 291 289 289 289 289 289 289 290 290 290 290 291 292 296 292 294 295 298 295 295 296 295 295 296 297 300 300 301 303 306 307 308 308 305 304 299
286 285 284 284 285 285 284 285 284 284 284 285 286 287 290 290 288 288 288 288 288 288 288 289 289 289 290 290 291 293 292 293 293 294 294 295 295 295 295 295 294 297 299 299 301 304 306 307 309 308 304 300
284 284 284 284 285 284 284 285 284 284 284 285 285 286 289 289 287 287 287 287 287 287 287 287 288 288 289 289 290 291 291 291 293 293 293 294 294 295 295 294 294 295 296 297 298 301 304 306 306 305 304 303
284 284 284 284 285 284 285 285 283 283 284 285 285 287 287 289 287 286 286 286 286 286 286 286 287 287 288 288 289 290 290 291 292 292 293 292 292 295 295 295 294 294 293 295 297 299 301 305 305 305 303 302
283 283 283 283 283 283 285 283 283 283 283 282 284 285 285 286 285 285 285 285 285 285 285 285 286 286 287 287 287 289 289 290 291 291 292 292 292 292 293 294 293 294 294 293 293 296 299 303 304 304 303 301
281 281 282 282 282 282 284 282 283 284 282 282 282 282 283 284 284 285 284 283 283 283 283 284 284 285 286 286 287 287 287 289 290 290 290 290 291 292 292 292 293 294 293 293 293 294 297 300 302 302 302 302
282 282 280 283 281 281 281 281 284 282 282 282 282 282 282 282 283 285 282 281 281 282 282 282 283 284 285 285 286 287 287 287 288 289 288 289 290 291 292 292 293 293 292 293 293 292 293 296 299 300 301 301
282 282 281 283 280 280 281 283 281 281 282 284 281 282 281 281 281 285 281 280 281 281 281 281 282 283 283 284 285 286 286 286 287 288 288 289 290 292 292 292 291 292 291 291 292 291 292 293 295 297 300 299
280 280 281 281 280 281 284 281 281 280 281 281 281 282 281 281 281 283 280 280 280 282 280 281 281 281 283 283 284 285 285 285 286 286 287 287 289 289 290 290 291 292 291 291 291 290 290 291 291 294 296 298
280 280 280 283 280 282 281 279 279 281 281 281 282 281 280 280 281 282 280 280 279 280 279 280 280 280 281 282 283 284 284 284 284 284 285 286 287 288 289 288 289 291 290 291 290 290 290 290 291 291 293 296
280 281 281 279 279 279 279 280 279 279 279 279 279 280 279 280 282 282 280 280 279 279 279 279 279 280 281 282 282 282 283 283 283 283 284 286 285 286 286 287 288 290 290 291 290 290 289 288 290 290 290 293
279 280 280 279 283 280 279 279 279 278 279 280 279 280 279 279 281 282 279 279 279 279 278 279 279 280 280 281 282 281 282 282 282 282 283 284 285 284 284 286 286 288 289 289 290 291 289 289 289 289 290 290
279 279 279 279 279 279 279 278 279 278 279 279 278 278 278 279 281 280 280 280 279 279 278 278 279 279 280 281 279 279 279 279 281 281 282 282 284 284 283 284 285 286 287 288 290 290 290 290 289 288 288 290
278 279 279 279 278 281 280 279 278 278 278 278 278 278 278 279 280 281 279 279 279 279 280 279 278 278 279 279 278 277 277 277 278 279 279 279 281 282 283 283 283 285 286 288 289 289 289 290 290 289 289 289
278 278 278 278 278 278 278 278 278 278 277 277 277 277 278 280 279 280 279 279 279 278 279 278 278 278 277 277 277 276 276 276 277 278 277 278 279 281 282 282 283 284 285 286 287 288 288 289 290 290 290 289
277 276 276 276 276 277 277 277 279 279 277 277 276 279 278 278 278 278 280 279 279 278 279 278 277 277 276 276 276 275 275 275 276 276 276 277 278 278 280 282 282 283 283 284 285 286 287 288 288 288 289 289
274 273 273 274 274 273 275 276 278 277 278 278 278 278 278 278 278 277 277 279 277 277 277 277 276 276 275 275 276 275 275 275 275 276 276 276 277 277 277 278 281 281 282 281 281 284 285 286 286 288 289 288
273 273 273 272 272 272 273 274 275 275 276 277 278 277 277 278 277 277 276 277 277 277 276 275 275 275 275 275 274 276 276 276 278 275 275 275 275 277 277 276 279 281 281 279 278 279 281 283 285 286 287 286
272 273 273 272 272 272 272 274 275 276 277 277 276 276 276 277 276 276 276 276 277 276 276 275 275 275 275 274 276 275 273 273 274 274 274 275 275 275 276 277 280 280 281 278 279 279 280 279 280 284 285 286
273 273 273 273 273 273 272 272 275 275 276 276 276 275 276 275 275 275 275 275 275 275 275 275 274 275 274 274 275 274 273 273 273 274 274 275 276 276 274 275 276 280 281 280 278 275 275 277 280 278 280 282
273 273 272 272 272 272 272 272 272 273 273 273 274 274 274 273 274 274 274 274 274 275 274 274 274 274 274 274 274 274 273 273 274 274 275 275 275 275 274 274 275 277 279 280 281 279 278 274 273 274 280 281
272 271 270 270 269 268 269 269 270 269 269 270 270 271 272 272 273 273 273 273 273 273 274 274 274 274 273 274 274 275 275 274 274 274 275 275 275 275 275 274 275 274 278 280 282 282 282 281 276 277 277 279
272 270 270 269 269 269 269 269 269 270 270 270 271 271 271 271 272 272 272 273 273 273 273 273 273 273 273 273 273 276 274 274 274 274 275 276 275 274 276 275 273 274 275 278 280 282 282 282 283 281 279 275
Wind_Speed
26 26 26 26 26 26 25 24 25 24 24 25 25 24 23 23 23 22 22 22 23 23 22 23 23 22 22 23 23 24 25 24 21 21 22 23 22 20 19 16 6 9 14 16 13 11 8 8 6 6 4 0
25 25 26 25 25 25 25 24 24 24 23 23 24 24 23 22 22 21 22 22 21 22 22 22 21 21 22 22 22 21 22 24 25 24 23 23 23 23 23 21 16 5 11 13 13 9 8 8 8 6 3 0
14 24 24 25 24 24 24 24 24 24 23 23 22 23 24 22 20 19 21 21 21 21 21 21 21 22 21 21 21 22 23 22 24 25 25 24 23 24 23 23 22 13 9 13 15 14 10 9 7 6 2 1
11 16 24 23 24 23 24 24 23 23 22 21 19 19 21 21 16 14 13 21 16 21 20 20 18 21 20 20 21 21 21 22 22 23 25 25 24 23 24 23 20 20 12 9 13 9 7 7 7 3 2 2
10 12 20 15 19 21 23 22 23 22 20 20 14 14 15 15 11 10 9 10 11 16 13 18 20 19 20 20 20 20 20 21 21 21 22 25 25 24 23 22 21 21 21 18 12 8 5 5 3 3 3 2
8 8 13 12 11 11 14 15 17 14 13 13 10 11 9 9 9 9 9 10 10 9 12 13 20 20 20 20 20 19 20 20 21 21 20 21 23 24 23 22 11 12 16 17 20 7 6 4 3 2 3 3
7 9 8 9 11 9 12 11 12 11 11 10 11 7 6 7 8 9 8 10 12 11 15 15 19 21 20 19 19 18 17 18 18 19 20 20 19 20 22 13 10 10 8 10 17 11 3 3 3 3 2 2
6 7 7 7 8 8 8 8 10 10 11 10 10 9 6 6 7 7 6 10 14 12 8 10 14 19 17 16 15 18 9 11 11 15 16 18 17 12 8 10 10 10 9 9 9 9 6 1 1 3 3 2
7 8 6 7 7 8 8 6 9 9 9 10 10 10 7 7 7 6 6 7 7 8 7 8 9 9 9 8 8 13 7 7 6 6 8 7 8 6 8 8 10 10 10 9 9 9 8 6 3 4 3 1
7 8 7 8 8 9 8 6 9 9 8 9 9 8 7 7 7 7 6 6 7 7 7 8 8 9 9 9 8 8 8 7 6 6 5 5 6 7 5 7 7 7 9 10 9 8 9 8 6 5 5 3
5 5 5 6 7 8 8 6 9 9 9 9 9 8 8 7 7 6 6 7 7 7 7 7 7 8 8 9 9 8 7 8 5 5 5 5 6 5 5 6 6 8 10 9 10 9 9 8 8 7 6 3
5 5 5 6 7 6 8 7 7 8 9 10 10 9 8 8 7 7 7 7 8 7 7 7 7 7 8 8 8 9 7 7 6 5 5 5 5 6 5 5 6 6 8 9 9 9 9 7 7 7 8 6
4 4 3 4 4 5 8 5 5 6 8 8 8 9 9 9 9 8 7 8 8 7 8 8 8 7 7 7 8 8 8 8 7 7 6 7 6 5 5 6 6 5 6 7 8 8 9 7 6 7 7 6
4 4 3 3 3 3 5 4 4 5 5 7 6 7 8 9 9 7 8 8 8 8 8 8 8 8 8 7 7 7 8 9 8 8 7 7 8 6 4 4 6 5 5 7 8 8 7 7 6 6 7 7
4 4 3 4 3 3 4 4 4 4 4 5 5 7 7 8 7 6 7 8 8 8 8 8 8 8 8 8 7 7 7 7 9 8 8 8 8 8 6 4 3 4 5 5 5 7 9 7 6 6 4 6
4 4 4 3 3 3 4 3 5 4 4 4 3 4 5 7 6 5 6 8 9 9 9 8 8 8 8 8 8 8 7 8 8 8 9 9 8 8 6 6 5 3 5 6 5 7 8 8 8 7 5 4
5 5 4 4 4 3 3 4 4 5 5 5 3 2 3 4 6 4 6 7 9 9 9 9 8 8 8 7 8 9 9 9 8 8 9 9 9 8 7 7 7 5 3 5 6 5 8 8 9 8 7 5
6 6 5 4 4 3 2 4 4 4 5 4 3 2 3 3 3 3 5 6 7 8 8 9 8 8 8 8 8 8 9 9 8 7 8 9 8 8 8 8 8 7 6 4 3 5 5 6 8 8 9 7
10 11 9 6 5 4 4 4 5 6 5 4 4 1 3 3 3 2 3 4 5 6 7 7 7 8 8 9 8 8 8 8 8 8 8 7 8 8 8 8 8 7 7 7 6 4 5 6 6 7 7 7
10 10 12 8 6 5 4 5 5 6 6 5 3 1 2 3 2 2 3 3 3 4 5 5 7 8 9 9 8 8 8 9 9 9 8 8 8 8 8 8 9 7 7 7 7 6 5 5 6 7 7 7
10 10 9 9 9 9 7 6 6 6 6 3 3 3 3 3 1 2 2 3 3 2 3 3 5 7 8 8 8 8 8 9 9 9 9 9 9 8 9 8 10 9 7 7 7 6 6 5 5 6 7 7
10 10 10 8 8 9 10 9 6 5 2 2 2 3 4 2 2 1 2 3 4 3 3 2 3 4 6 7 8 8 9 9 9 9 9 10 10 10 9 9 9 9 9 8 8 7 6 6 5 6 7 7
10 10 10 10 11 9 9 10 8 5 3 3 2 3 2 3 4 4 5 6 5 4 3 4 4 2 4 5 7 8 9 10 11 11 11 11 11 10 9 9 9 9 8 9 9 9 9 6 6 6 6 6
8 9 10 11 12 12 12 11 10 9 7 4 4 3 3 3 4 5 6 6 7 6 6 6 5 4 4 4 5 7 9 10 9 12 13 13 13 13 11 9 8 8 8 8 9 11 10 8 7 7 7 8
9 9 9 10 11 11 11 11 10 9 9 9 9 8 6 6 6 5 5 5 5 6 6 6 6 7 5 4 4 4 5 5 9 10 11 11 10 11 11 9 8 8 7 8 9 8 9 9 7 8 8 10
6 7 6 7 8 9 10 11 10 9 8 8 8 7 6 6 5 6 7 7 7 7 6 7 7 7 7 6 6 5 4 5 8 9 10 10 10 8 9 8 7 8 9 7 6 9 9 10 9 7 9 9
7 7 8 9 9 9 10 10 9 9 8 8 7 6 6 7 7 8 8 8 8 7 7 7 7 7 6 6 7 7 6 4 6 8 9 10 9 9 8 9 6 7 5 7 5 4 8 9 9 6 4 5
8 9 9 8 9 11 10 10 11 10 8 7 7 8 8 7 7 8 8 8 8 8 7 7 7 7 6 6 5 6 6 6 7 7 8 8 8 8 10 8 9 7 8 7 6 5 4 5 5 9 6 4
9 9 8 8 8 9 10 9 7 6 7 9 10 10 10 10 10 10 9 8 9 9 9 9 9 8 8 8 6 4 5 5 5 5 6 7 7 8 8 10 8 9 9 10 6 6 6 4 4 4 7 6
9 8 7 8 9 10 10 9 9 10 10 10 9 9 9 9 9 9 9 9 9 9 9 9 8 8 8 7 7 6 5 4 5 6 7 6 6 7 8 9 10 10 10 10 10 8 8 7 5 4 5 7
8 6 6 7 8 9 10 9 8 8 8 9 9 8 9 9 9 9 9 8 7 7 8 8 8 8 8 8 7 6 7 6 6 5 4 6 7 8 7 8 9 10 10 11 10 9 9 8 6 5 4 5
Wind_Direction
13 16 15 14 14 14 13 14 15 15 17 19 19 20 21 24 22 22 24 22 20 21 23 21 18 22 19 18 19 18 17 13 13 14 11 10 18 18 12 359 287 193 198 186 191 193 186 182 194 208 238 110
9 13 13 12 13 13 12 11 12 14 15 17 19 19 18 18 19 20 20 21 20 19 19 19 16 17 21 18 21 18 11 10 10 11 9 8 12 15 10 7 355 229 184 196 204 191 192 184 187 215 207 290
3 8 10 9 9 11 11 10 10 10 10 14 17 20 18 14 13 16 17 20 17 21 19 15 14 13 17 17 20 18 11 9 10 8 8 7 10 11 10 7 4 347 224 199 195 187 193 183 182 191 187 178
3 3 8 5 5 6 8 7 9 6 5 7 11 20 21 14 10 5 9 15 15 15 16 13 12 12 15 17 18 20 12 8 10 9 8 6 7 7 8 5 1 360 344 234 212 182 186 183 171 178 172 188
1 1 5 358 357 359 4 3 4 0 359 360 1 12 19 18 8 3 0 4 11 11 11 8 11 9 11 15 18 18 13 11 10 12 9 7 3 4 4 4 358 360 356 349 252 211 190 179 166 180 197 186
358 356 1 355 352 351 357 358 360 354 353 352 356 353 12 15 12 1 359 359 0 7 6 4 8 7 8 9 12 17 14 11 11 9 9 11 3 358 2 1 0 353 353 345 347 254 214 188 190 193 207 207
353 356 356 353 351 349 349 354 356 348 348 349 349 346 3 14 13 3 359 0 359 359 3 3 4 4 4 4 5 9 16 13 9 10 7 10 5 360 355 358 355 354 341 347 350 335 192 191 203 209 214 240
345 355 353 349 348 346 345 350 351 346 344 344 344 350 352 8 10 7 1 358 357 357 359 356 0 358 356 356 359 0 7 12 5 9 9 8 6 358 351 352 354 348 348 349 345 351 325 293 245 234 213 197
347 354 350 348 343 347 340 348 350 344 341 339 342 350 350 358 5 6 1 358 353 358 356 358 358 353 351 348 352 354 354 357 355 9 9 3 0 354 349 351 354 350 347 344 347 346 349 327 292 277 245 186
345 354 349 349 351 348 335 353 350 341 339 338 341 345 351 359 358 2 1 354 354 359 357 3 357 352 346 347 348 348 349 346 350 353 5 6 351 351 345 350 354 348 344 340 339 345 344 342 325 291 277 214
341 349 348 344 348 349 331 1 349 340 338 338 339 344 351 356 357 359 356 351 356 357 3 0 355 349 348 346 344 343 344 342 337 343 354 354 345 336 347 351 349 352 340 339 336 338 339 340 336 329 281 250
332 338 342 343 343 345 333 353 347 339 336 337 340 349 352 352 355 355 355 355 359 355 3 356 352 345 345 345 340 338 339 340 332 332 344 343 337 339 341 344 346 351 342 334 334 335 334 338 345 342 339 330
316 317 329 332 330 335 337 339 338 338 335 337 339 348 355 354 355 356 358 3 359 0 359 352 348 345 342 339 339 336 337 345 342 343 336 337 332 335 335 338 337 347 337 336 330 336 336 338 345 345 336 335
299 297 304 304 306 294 327 308 326 333 339 329 341 344 353 354 356 358 5 2 358 358 353 350 344 343 335 338 333 340 341 347 345 339 338 335 332 324 322 327 330 337 327 332 326 335 341 337 340 340 331 327
275 285 282 278 289 299 300 299 322 317 323 323 333 346 348 352 351 1 6 2 357 353 350 346 344 339 335 332 333 340 345 341 338 335 337 337 333 319 311 305 311 324 320 317 334 331 331 329 329 326 331 328
280 277 266 267 272 282 281 302 303 302 308 310 322 339 347 346 345 2 3 4 357 351 344 339 340 335 336 333 332 339 336 338 336 335 334 335 330 319 306 308 306 301 312 320 331 331 332 328 328 330 330 331
265 263 259 255 248 256 281 294 296 293 292 287 302 321 345 339 339 2 8 2 360 348 338 333 332 335 332 331 335 334 332 334 337 338 333 330 327 325 319 314 307 295 293 311 317 331 324 323 321 326 324 324
291 279 269 246 243 246 258 272 275 273 270 277 280 305 331 336 325 9 9 8 356 343 331 328 330 330 333 330 334 333 336 333 329 330 331 325 327 325 327 325 314 300 298 286 296 311 302 308 308 310 312 318
337 328 297 270 256 249 236 246 259 262 258 257 258 269 318 306 311 8 22 19 355 333 327 327 331 335 327 332 331 337 335 335 331 331 329 327 328 324 324 322 319 310 288 293 289 279 293 296 299 298 299 304
345 342 336 308 293 262 247 254 259 263 260 256 236 248 273 280 296 16 17 4 339 329 324 334 339 332 330 330 342 344 345 345 340 335 331 328 326 325 321 321 319 317 309 291 286 270 261 277 292 293 291 298
340 338 337 334 327 305 286 272 259 261 260 278 270 265 269 271 319 25 2 322 328 330 317 340 339 328 330 345 352 348 346 345 340 339 333 331 330 325 318 319 316 316 314 308 293 286 268 250 273 280 290 285
348 347 349 349 343 341 331 300 273 276 315 312 291 300 290 342 344 320 291 311 314 305 298 336 325 322 344 350 349 346 345 341 337 336 336 330 328 326 324 319 315 314 315 314 307 294 277 269 245 259 274 282
0 356 352 351 349 348 349 342 317 317 343 315 343 330 343 359 338 320 319 324 311 303 317 325 315 342 351 353 347 344 341 340 336 334 331 327 321 321 317 312 309 305 307 309 307 300 295 279 267 251 254 269
7 4 357 354 350 347 348 344 343 342 324 315 340 356 0 345 344 340 345 348 343 346 339 330 323 349 357 359 350 342 337 332 332 330 326 321 320 317 316 314 311 309 313 309 305 305 300 293 279 269 261 262
15 6 355 356 349 343 337 334 335 337 341 347 348 349 352 357 1 5 7 7 9 356 346 341 337 341 343 336 342 326 315 313 321 316 311 308 306 307 308 309 313 308 309 313 310 311 304 300 280 268 264 261
10 13 358 346 338 334 330 328 329 331 335 336 334 340 350 2 6 8 5 356 356 349 347 341 335 333 326 326 317 302 300 311 307 307 304 301 301 298 298 297 304 304 313 310 302 312 315 297 293 267 260 255
11 358 357 347 334 336 327 319 313 315 319 323 326 336 355 353 1 358 350 349 345 341 337 331 325 319 314 319 314 312 303 296 302 300 296 293 292 301 299 296 298 298 285 278 288 283 293 295 311 303 271 264
2 351 348 343 336 336 333 321 313 312 313 318 333 341 350 353 356 351 346 346 344 337 334 333 329 326 329 322 323 311 312 316 311 305 303 301 300 302 304 306 302 298 291 274 278 296 218 256 249 286 287 277
352 344 346 344 340 332 321 313 307 312 339 350 348 349 355 351 351 348 345 345 341 339 336 334 333 333 329 333 325 328 327 326 322 324 315 321 324 321 312 309 307 297 290 283 248 226 276 326 322 245 279 338
345 346 345 348 343 334 325 323 343 349 348 341 340 337 333 334 335 333 332 330 330 330 327 327 328 327 323 317 314 313 303 300 315 319 317 320 314 319 321 309 304 299 297 285 276 253 231 221 239 294 301 322
339 349 352 344 334 319 313 333 331 330 331 329 326 327 329 327 328 328 326 327 330 335 333 330 326 321 318 313 308 304 301 300 299 295 307 311 317 309 313 323 309 302 297 294 278 270 258 245 249 251 271 264